Location: Stull Observatory
(42.2506°N, 77.7903°W)
Time: 14:51:03
(UTC-05:00)

ISS - All Passes

Search period start: 02 December 2016 00:00
Search period end: 12 December 2016 00:00
Orbit: 401 x 410 km, 51.6° (Epoch: 03 December)

Date Brightness Start Highest point End Pass type
(mag) Time Alt. Az. Time Alt. Az. Time Alt. Az.
02 Dec - 00:19:10 10° NW 00:22:30 89° NE 00:25:49 10° SE night (unlit)
02 Dec - 01:57:31 10° WSW 01:58:31 11° SW 01:59:31 10° SSW night (unlit)
02 Dec - 17:00:15 10° S 17:02:44 20° SE 17:05:15 10° E daylight
02 Dec - 18:35:47 10° WSW 18:39:01 51° NNW 18:42:16 10° NE visible
02 Dec - 20:13:42 10° WNW 20:16:05 18° N 20:18:28 10° NE visible
02 Dec - 21:51:08 10° NW 21:53:30 18° N 21:55:53 10° NE night (unlit)
02 Dec - 23:27:20 10° NW 23:30:35 51° NNE 23:33:48 10° ESE night (unlit)
03 Dec - 01:04:19 10° W 01:06:51 20° SW 01:09:23 10° S night (unlit)
03 Dec - 16:10:12 10° SE 16:11:04 11° SE 16:11:57 10° ESE daylight
03 Dec - 17:43:47 10° SW 17:47:05 90° WNW 17:50:24 10° NE visible
03 Dec - 19:21:18 10° WNW 19:23:57 22° NNW 19:26:36 10° NE visible
03 Dec - 20:59:08 10° NW 21:01:20 16° N 21:03:32 10° NE night (unlit)
03 Dec - 22:35:32 10° NW 22:38:34 33° NNE 22:41:36 10° E night (unlit)
04 Dec - 00:12:01 10° WNW 00:15:06 37° SW 00:18:12 10° SSE night (unlit)
04 Dec - 16:52:03 10° SW 16:55:13 47° SE 16:58:26 10° ENE daylight
04 Dec - 18:28:55 10° W 18:31:51 29° NNW 18:34:48 10° NE visible
04 Dec - 20:06:59 10° NW 20:09:09 16° N 20:11:18 10° NE visible
04 Dec - 21:43:43 10° NW 21:46:29 24° NNE 21:49:16 10° ENE night (unlit)
04 Dec - 23:19:58 10° WNW 23:23:16 72° SW 23:26:34 10° SE night (unlit)
05 Dec - 16:00:40 10° SSW 16:03:26 25° SE 16:06:12 10° ENE daylight
05 Dec - 17:36:38 10° W 17:39:47 42° NNW 17:42:59 10° NE visible
05 Dec - 19:14:39 10° NW 19:16:56 17° N 19:19:14 10° NE visible
05 Dec - 20:51:52 10° NW 20:54:21 19° NNE 20:56:50 10° ENE night (unlit)
05 Dec - 22:28:02 10° NW 22:31:20 63° NNE 22:34:38 10° ESE night (unlit)
06 Dec - 00:05:23 10° W 00:07:31 16° SW 00:09:39 10° S night (unlit)
06 Dec - 15:09:55 10° SSE 15:11:42 14° SE 15:13:29 10° E daylight
06 Dec - 16:44:32 10° WSW 16:47:48 72° NNW 16:51:06 10° NE daylight
06 Dec - 18:22:13 10° WNW 18:24:45 20° NNW 18:27:18 10° NE visible
06 Dec - 19:59:55 10° NW 20:02:09 17° N 20:04:24 10° NE visible
06 Dec - 21:36:11 10° NW 21:39:20 38° NNE 21:42:27 10° E night (unlit)
06 Dec - 23:12:50 10° WNW 23:15:46 29° SW 23:18:41 10° SSE night (unlit)
07 Dec - 15:52:38 10° SW 15:55:52 62° SE 15:59:09 10° ENE daylight
07 Dec - 17:29:47 10° WNW 17:32:36 25° NNW 17:35:26 10° NE visible
07 Dec - 19:07:47 10° NW 19:09:56 16° N 19:12:05 10° NE visible
07 Dec - 20:44:22 10° NW 20:47:14 27° NNE 20:50:07 10° E night (unlit)
07 Dec - 22:20:40 10° WNW 22:23:55 56° SW 22:27:09 10° SE night (unlit)
08 Dec - 15:01:03 10° SSW 15:04:01 32° SE 15:07:00 10° ENE daylight
08 Dec - 16:37:24 10° W 16:40:29 36° NNW 16:43:34 10° NE daylight
08 Dec - 18:15:28 10° NW 18:17:41 16° N 18:19:54 10° NE visible
08 Dec - 19:52:30 10° NW 19:55:05 21° NNE 19:57:40 10° ENE visible
08 Dec - 21:28:40 10° NW 21:31:59 79° NE 21:35:17 10° ESE night (unlit)
08 Dec - 23:06:32 10° WSW 23:08:03 13° SW 23:09:36 10° SSW night (unlit)
09 Dec - 14:09:56 10° S 14:12:13 18° SE 14:14:30 10° E daylight
09 Dec - 15:45:11 10° WSW 15:48:26 57° NNW 15:51:42 10° NE daylight
09 Dec - 17:23:01 10° WNW 17:25:27 19° NNW 17:27:53 10° NE visible
09 Dec - 19:00:32 10° NW 19:02:52 17° N 19:05:11 10° NE visible
09 Dec - 20:36:46 10° NW 20:39:58 45° NNE 20:43:10 10° ESE night (unlit)
09 Dec - 22:13:36 10° W 22:16:18 23° SW 22:18:59 10° S night (unlit)
10 Dec - 14:53:09 10° SW 14:56:26 79° SE 14:59:44 10° ENE daylight
10 Dec - 16:30:32 10° WNW 16:33:14 23° NNW 16:35:57 10° NE daylight
10 Dec - 18:08:26 10° NW 18:10:36 16° N 18:12:46 10° NE visible
10 Dec - 19:44:53 10° NW 19:47:52 30° NNE 19:50:50 10° E visible
10 Dec - 21:21:17 10° WNW 21:24:26 43° SW 21:27:36 10° SSE night (unlit)
11 Dec - 14:01:24 10° SSW 14:04:30 41° SE 14:07:38 10° ENE daylight
11 Dec - 15:38:05 10° W 15:41:04 31° NNW 15:44:03 10° NE daylight
11 Dec - 17:16:09 10° NW 17:18:19 16° N 17:20:29 10° NE visible
11 Dec - 18:52:59 10° NW 18:55:41 22° NNE 18:58:23 10° ENE visible
11 Dec - 20:29:11 10° WNW 20:32:30 83° SSW 20:35:48 10° SE night (unlit)
